CAPE
0 0 0 0 0 0 0 0 0 0 0 0 0 0 0 0 0 0 0 0 0 0 0 0 0 0 0 0 0 0 0 0 0 0 0 0 0 0 0 0 0 0 0 0
0 0 0 0 0 0 0 0 0 0 0 0 0 0 0 0 0 0 0 0 0 0 0 0 0 0 0 0 0 0 0 0 0 0 0 0 0 0 0 0 0 0 0 0
0 0 0 0 0 0 0 0 0 0 0 0 0 0 0 0 0 0 0 0 0 0 0 0 0 0 0 0 0 0 0 0 0 0 0 0 0 0 0 0 0 0 0 0
0 0 0 0 0 0 0 0 0 0 0 0 0 0 0 0 0 0 0 0 0 0 0 0 0 0 0 0 0 0 0 0 0 0 0 0 0 0 0 0 0 0 0 0
0 0 0 0 0 0 0 0 0 0 0 0 0 0 0 0 0 0 0 0 0 0 0 0 0 0 0 0 0 0 0 0 0 0 0 0 0 0 0 0 0 0 0 0
0 0 0 0 0 0 0 0 0 0 0 0 0 0 0 0 0 0 0 0 0 0 0 0 0 0 0 0 0 0 0 0 0 0 0 0 0 0 0 0 0 0 0 0
0 0 0 0 0 0 0 0 0 0 0 0 0 0 0 0 0 0 0 0 0 0 0 0 0 0 0 0 0 0 0 0 0 0 0 0 0 0 0 0 0 0 0 0
0 0 0 0 0 0 0 0 0 0 0 0 0 0 0 0 0 0 0 0 0 0 0 0 0 0 0 0 0 0 0 0 0 0 0 0 0 0 0 0 0 0 0 0
0 0 0 0 0 0 0 0 0 0 0 0 0 0 0 0 0 0 0 0 0 0 0 0 0 0 0 0 0 0 0 0 0 0 0 0 0 0 0 0 0 0 0 0
0 0 0 0 0 0 0 0 0 0 0 0 0 0 0 0 0 0 0 0 0 0 0 0 0 0 0 0 0 0 0 0 0 0 0 0 0 0 0 0 0 0 0 0
0 0 0 0 0 0 0 0 0 0 0 0 0 0 0 0 0 0 0 0 0 0 0 0 0 0 0 0 0 0 0 0 0 0 0 0 0 0 0 0 0 0 0 0
0 0 0 0 0 0 0 0 0 0 0 0 0 0 0 0 0 0 0 0 0 0 0 0 0 0 0 0 0 0 0 0 0 0 0 0 0 0 0 0 0 0 0 2
0 0 0 0 0 0 0 0 0 0 0 0 0 0 0 0 0 0 0 0 0 0 0 0 0 0 0 0 0 0 0 0 0 0 0 0 0 0 0 0 0 0 1 1
0 0 0 0 0 0 0 0 0 0 0 0 0 0 0 0 0 0 0 0 0 0 0 0 0 0 0 0 0 0 0 0 0 0 0 0 0 0 0 0 0 0 1 0
0 0 0 0 0 0 0 0 0 0 0 0 0 0 0 0 0 0 0 0 0 0 0 0 0 0 0 0 0 0 0 0 0 0 0 0 0 0 0 0 0 0 1 1
0 0 0 0 0 0 0 0 0 0 0 0 0 0 0 0 0 0 0 0 0 0 0 0 0 0 0 0 0 0 0 0 0 0 0 0 0 0 0 0 0 0 0 0
0 0 0 0 0 0 0 0 0 0 0 0 0 0 0 0 0 0 0 0 0 0 0 0 0 0 0 0 0 0 0 0 0 0 0 0 0 0 0 0 0 0 0 0
0 0 0 0 0 0 0 0 0 0 0 0 0 0 0 0 0 0 0 0 0 0 0 0 0 0 0 0 0 0 0 0 0 0 0 0 0 0 0 0 0 0 0 1
0 0 0 0 0 0 0 0 0 0 0 0 0 0 0 0 0 0 0 0 0 0 0 0 0 0 0 0 0 0 0 0 0 0 0 0 0 0 0 0 0 0 0 0
0 0 0 0 0 0 0 0 0 0 0 0 0 0 0 0 0 0 0 0 0 0 0 0 0 0 0 0 0 0 0 0 0 0 0 0 0 0 0 0 0 0 0 0
1 1 0 1 0 0 0 0 0 0 0 0 0 0 0 0 0 0 0 0 0 0 0 0 0 0 0 0 0 0 0 0 0 0 0 0 0 0 0 0 0 0 0 0
0 0 0 1 0 0 0 0 0 0 0 0 0 0 0 0 0 0 0 0 0 0 0 0 0 0 0 0 0 0 0 0 0 0 0 0 0 0 0 0 0 0 0 0
0 0 0 0 0 0 0 0 0 0 0 0 0 0 0 0 0 0 0 0 0 0 0 0 0 0 0 0 0 0 0 0 0 0 0 0 0 0 0 0 0 0 0 0
0 0 0 0 0 0 0 0 0 0 0 0 0 0 0 0 0 0 0 0 0 0 0 0 0 0 0 0 0 0 0 0 0 0 0 0 0 0 0 0 0 0 0 0
0 0 0 0 0 0 0 0 0 0 0 0 0 0 0 0 0 0 0 0 0 0 0 0 0 0 0 0 0 0 0 0 0 0 0 0 0 0 0 0 0 0 0 0
0 0 0 0 0 0 0 0 0 0 0 0 0 0 0 0 0 0 0 0 0 0 0 0 0 0 0 0 0 0 0 0 0 0 0 0 0 0 0 0 0 0 0 0
CIN
-0 -0 -0 -0 -0 -0 -0 -0 -0 -0 -0 -0 -0 -0 -0 -0 -0 -0 -0 -0 -0 -0 -0 -0 -0 -0 -0 -0 -0 -0 -0 -0 -0 -0 -0 -0 -0 -0 -0 -0 -0 -0 -0 -0
-0 -0 -0 -0 -0 -0 -0 -0 -0 -0 -0 -0 -0 -0 -0 -0 -0 -0 -0 -0 -0 -0 -0 -0 -0 -0 -0 -0 -0 -0 -0 -0 -0 -0 -0 -0 -0 -0 -0 -0 -0 -0 -0 -0
-0 -0 -0 -0 -0 -0 -0 -0 -0 -0 -0 -0 -0 -0 -0 -0 -0 -0 -0 -0 -0 -0 -0 -0 -0 -0 -0 -0 -0 -0 -0 -0 -0 -0 -0 -0 -0 -0 -0 -0 -0 -0 -0 -0
-0 -0 -0 -0 -0 -0 -0 -0 -0 -0 -0 -0 -0 -0 -0 -0 -0 -0 -0 -0 -0 -0 -0 -0 -0 -0 -0 -0 -0 -0 -0 -0 -0 -0 -0 -0 -0 -0 -0 -0 -0 -0 -0 -0
-0 -0 -0 -0 -0 -0 -0 -0 -0 -0 -0 -0 -0 -0 -0 -0 -0 -0 -0 -0 -0 -0 -0 -0 -0 -0 -0 -0 -0 -0 -0 -0 -0 -0 -0 -0 -0 -0 -0 -0 -0 -0 -0 -0
-0 -0 -0 -0 -0 -0 -0 -0 -0 -0 -0 -0 -0 -0 -0 -0 -0 -0 -0 -0 -0 -0 -0 -0 -0 -0 -0 -0 -0 -0 -0 -0 -0 -0 -0 -0 -0 -0 -0 -0 -0 -0 -0 -0
-0 -0 -0 -0 -0 -0 -0 -0 -0 -0 -0 -0 -0 -0 -0 -0 -0 -0 -0 -0 -0 -0 -0 -0 -0 -0 -0 -0 -0 -0 -0 -0 -0 -0 -0 -0 -0 -0 -0 -0 -0 -0 -0 -0
-0 -0 -0 -0 -0 -0 -0 -0 -0 -0 -0 -0 -0 -0 -0 -0 -0 -0 -0 -0 -0 -0 -0 -0 -0 -0 -0 -0 -0 -0 -0 -0 -0 -0 -0 -0 -0 -0 -0 -0 -0 -0 -0 -0
-0 -0 -0 -0 -0 -0 -0 -0 -0 -0 -0 -0 -0 -0 -0 -0 -0 -0 -0 -0 -0 -0 -0 -0 -0 -0 -0 -0 -0 -0 -0 -0 -0 -0 -0 -0 -0 -0 -0 -0 -0 -0 -0 -0
-0 -0 -0 -0 -0 -0 -0 -0 -0 -0 -0 -0 -0 -0 -0 -0 -0 -0 -0 -0 -0 -0 -0 -0 -0 -0 -0 -0 -0 -0 -0 -0 -0 -0 -0 -0 -0 -0 -0 -0 -0 -0 -0 -0
-0 -0 -0 -0 -0 -0 -0 -0 -0 -0 -0 -0 -0 -0 -0 -0 -0 -0 -0 -0 -0 -0 -0 -0 -0 -0 -0 -0 -0 -0 -0 -0 -0 -0 -0 -0 -0 -0 -0 -0 -0 -0 -0 -0
-0 -0 -0 -0 -0 -0 -0 -0 -0 -0 -0 -0 -0 -0 -0 -0 -0 -0 -0 -0 -0 -0 -0 -0 -0 -0 -0 -0 -0 -0 -0 -0 -0 -0 -0 -0 -0 -0 -0 -0 -0 -0 -0 -0
-0 -0 -0 -0 -0 -0 -0 -0 -0 -0 -0 -0 -0 -0 -0 -0 -0 -0 -0 -0 -0 -0 -0 -0 -0 -0 -0 -0 -0 -0 -0 -0 -0 -0 -0 -0 -0 -0 -0 -0 -0 -0 -0 -0
-0 -0 -0 -0 -0 -0 -0 -0 -0 -0 -0 -0 -0 -0 -0 -0 -0 -0 -0 -0 -0 -0 -0 -0 -0 -0 -0 -0 -0 -0 -0 -0 -0 -0 -0 -0 -0 -0 -0 -0 -0 -0 -0 -0
-0 -0 -0 -0 -0 -0 -0 -0 -0 -0 -0 -0 -0 -0 -0 -0 -0 -0 -0 -0 -0 -0 -0 -0 -0 -0 -0 -0 -0 -0 -0 -0 -0 -0 -0 -0 -0 -0 -0 -0 -0 -0 -0 -0
-0 -0 -0 -0 -0 -0 -0 -0 -0 -0 -0 -0 -0 -0 -0 -0 -0 -0 -0 -0 -0 -0 -0 -0 -0 -0 -0 -0 -0 -0 -0 -0 -0 -0 -0 -0 -0 -0 -0 -0 -0 -0 -0 -0
-0 -0 -0 -0 -0 -0 -0 -0 -0 -0 -0 -0 -0 -0 -0 -0 -0 -0 -0 -0 -0 -0 -0 -0 -0 -0 -0 -0 -0 -0 -0 -0 -0 -0 -0 -0 -0 -0 -0 -0 -0 -0 -0 -0
-0 -0 -0 -0 -0 -0 -0 -0 -0 -0 -0 -0 -0 -0 -0 -0 -0 -0 -0 -0 -0 -0 -0 -0 -0 -0 -0 -0 -0 -0 -0 -0 -0 -0 -0 -0 -0 -0 -0 -0 -0 -0 -0 -0
-0 -0 -0 -0 -0 -0 -0 -0 -0 -0 -0 -0 -0 -0 -0 -0 -0 -0 -0 -0 -0 -0 -0 -0 -0 -0 -0 -0 -0 -0 -0 -0 -0 -0 -0 -0 -0 -0 -0 -0 -0 -0 -0 -0
-0 -0 -0 -0 -0 -0 -0 -0 -0 -0 -0 -0 -0 -0 -0 -0 -0 -0 -0 -0 -0 -0 -0 -0 -0 -0 -0 -0 -0 -0 -0 -0 -0 -0 -0 -0 -0 -0 -0 -0 -0 -0 -0 -0
-0 -0 -0 -0 -0 -0 -0 -0 -0 -0 -0 -0 -0 -0 -0 -0 -0 -0 -0 -0 -0 -0 -0 -0 -0 -0 -0 -0 -0 -0 -0 -0 -0 -0 -0 -0 -0 -0 -0 -0 -0 -0 -0 -0
-0 -0 -0 -0 -0 -0 -0 -0 -0 -0 -0 -0 -0 -0 -0 -0 -0 -0 -0 -0 -0 -0 -0 -0 -0 -0 -0 -0 -0 -0 -0 -0 -0 -0 -0 -0 -0 -0 -0 -0 -0 -0 -0 -0
-0 -0 -0 -0 -0 -0 -0 -0 -0 -0 -0 -0 -0 -0 -0 -0 -0 -0 -0 -0 -0 -0 -0 -0 -0 -0 -0 -0 -0 -0 -0 -0 -0 -0 -0 -0 -0 -0 -0 -0 -0 -0 -0 -0
-0 -0 -0 -0 -0 -0 -0 -0 -0 -0 -0 -0 -0 -0 -0 -0 -0 -0 -0 -0 -0 -0 -0 -0 -0 -0 -0 -0 -0 -0 -0 -0 -0 -0 -0 -0 -0 -0 -0 -0 -0 -0 -0 -0
-0 -0 -0 -0 -0 -0 -0 -0 -0 -0 -0 -0 -0 -0 -0 -0 -0 -0 -0 -0 -0 -0 -0 -0 -0 -0 -0 -0 -0 -0 -0 -0 -0 -0 -0 -0 -0 -0 -0 -0 -0 -0 -0 -1
-0 -0 -0 -0 -0 -0 -0 -0 -0 -0 -0 -0 -0 -0 -0 -0 -0 -0 -0 -0 -0 -0 -0 -0 -0 -0 -0 -0 -0 -0 -0 -0 -0 -0 -0 -0 -0 -0 -0 -0 -0 -0 -0 -1
Wind_Speed
20 26 23 22 18 20 21 23 22 20 21 22 21 20 19 14 13 13 13 14 15 16 15 15 18 22 27 30 31 37 41 43 44 46 49 49 52 53 52 52 53 55 54 54
23 26 22 19 21 22 21 24 26 24 24 24 26 25 21 15 15 15 14 14 14 16 16 16 18 23 27 30 31 37 40 39 42 44 45 47 52 51 51 52 53 52 52 53
24 26 20 23 25 24 23 26 27 29 31 28 29 31 20 20 16 16 15 13 13 15 16 17 19 24 27 31 31 36 38 39 42 44 47 50 50 50 52 55 55 52 53 54
23 23 22 24 26 23 29 23 26 32 36 37 32 39 28 22 18 16 14 14 14 15 16 16 20 24 26 29 29 34 38 39 41 45 48 51 54 57 54 55 54 54 54 53
28 26 27 26 25 19 27 25 29 32 33 36 31 32 33 27 24 20 15 15 14 14 14 16 20 23 26 27 30 33 37 39 42 44 46 48 51 50 52 53 54 55 54 48
27 25 25 25 22 22 25 30 34 32 31 36 31 28 37 32 26 23 17 16 15 14 14 16 19 22 26 27 29 34 37 41 43 47 46 46 49 52 55 56 55 58 56 48
31 29 26 19 25 24 24 32 41 40 40 39 30 36 37 29 28 23 19 16 14 13 14 17 21 24 27 29 30 36 40 43 47 47 46 46 49 52 52 54 56 60 55 49
38 39 22 19 23 27 23 26 33 45 48 50 39 40 38 31 30 23 19 13 12 14 15 18 21 25 28 29 32 38 42 47 47 47 47 47 48 50 49 53 55 54 50 47
31 35 24 23 23 21 26 28 27 37 40 46 38 40 35 34 30 25 19 14 15 15 16 19 22 26 28 30 37 43 46 48 48 49 48 48 49 50 52 54 54 52 49 44
28 42 29 26 23 24 25 23 35 32 44 50 50 50 42 33 31 25 20 19 17 16 18 20 23 27 29 34 40 44 45 48 49 48 47 50 50 50 52 53 54 51 48 44
26 32 35 27 28 29 28 32 30 31 33 46 55 53 32 32 29 24 23 21 18 18 19 21 25 29 32 34 39 43 46 48 49 48 50 52 52 53 53 53 53 50 48 45
27 33 39 37 30 28 30 31 27 37 42 38 45 52 35 36 32 26 26 21 18 18 20 22 27 30 31 35 41 45 46 48 48 49 51 52 53 55 55 55 53 51 47 46
25 34 44 42 34 29 33 30 29 35 40 45 51 52 33 33 35 27 25 20 19 19 21 26 28 30 34 37 42 45 47 48 47 49 51 53 55 56 55 56 53 50 47 48
24 36 40 48 45 38 42 38 33 34 45 51 51 54 45 42 38 31 26 21 19 20 22 26 28 32 33 38 43 46 47 46 47 50 52 54 55 56 56 55 53 50 47 44
30 45 41 45 45 44 48 47 42 44 49 50 54 51 45 43 38 32 27 23 21 21 24 25 28 31 34 40 44 46 46 46 48 51 53 54 55 55 55 55 52 49 48 40
33 44 42 51 46 47 54 52 48 49 48 45 47 51 42 43 35 28 23 20 20 20 21 24 27 31 37 41 44 46 46 47 49 51 53 54 55 56 56 54 52 50 49 38
36 39 43 55 48 48 59 49 43 41 38 37 44 42 37 35 31 25 21 18 18 19 21 24 27 32 37 39 42 44 45 47 50 52 53 54 56 57 56 53 50 52 47 38
39 40 41 54 48 58 52 37 33 37 41 33 37 36 34 32 27 22 16 15 16 18 20 23 27 32 34 37 39 41 44 48 49 51 53 54 56 56 54 53 50 56 44 42
39 41 48 50 52 52 54 39 38 39 47 31 33 34 29 24 24 23 15 14 15 16 18 21 26 29 33 37 39 41 45 47 49 51 53 54 55 55 54 52 51 60 54 42
37 37 40 41 48 51 45 32 26 26 50 32 25 23 21 19 30 28 13 12 14 15 17 21 25 28 32 36 38 43 46 48 50 52 53 53 52 52 51 49 54 56 53 39
35 35 41 44 48 48 38 26 21 41 45 25 19 19 18 24 26 20 8 11 13 14 17 20 24 28 32 35 39 43 45 47 49 50 51 51 50 50 48 48 56 55 52 40
38 37 39 39 44 53 27 21 31 31 27 23 21 20 21 20 17 10 9 10 11 14 16 19 23 28 32 35 39 43 46 47 48 49 50 50 49 48 48 49 58 55 49 41
41 36 39 35 42 33 24 30 21 23 27 24 21 20 19 16 15 12 13 11 12 12 14 18 23 28 30 34 38 42 45 47 48 50 49 48 47 47 48 50 56 54 48 44
35 29 40 41 45 41 35 30 25 23 25 22 21 20 15 14 12 14 12 11 10 11 13 18 23 28 32 34 37 40 44 46 48 49 49 47 48 48 48 51 54 52 48 44
34 30 42 49 50 46 40 35 28 24 25 21 20 18 14 13 15 13 11 11 9 10 13 17 22 26 30 33 36 39 43 46 48 48 47 46 45 46 48 51 53 50 45 42
39 44 46 55 46 42 45 30 24 24 24 21 19 18 13 12 14 10 10 8 7 9 12 17 20 24 28 32 36 39 42 44 46 48 47 45 43 44 48 51 52 51 42 40
Wind_Direction
1 357 352 353 355 351 348 343 339 342 343 336 321 307 311 297 297 296 296 301 309 316 327 334 340 343 345 346 345 344 343 343 344 342 340 339 335 333 332 333 331 328 326 323
344 347 351 356 349 343 342 338 336 337 342 338 328 317 318 302 281 279 287 296 304 314 319 326 336 341 342 342 342 343 343 343 343 342 340 337 334 333 333 333 331 331 329 326
331 339 350 344 341 338 338 335 334 332 337 334 329 323 306 321 301 300 295 294 301 306 314 323 331 336 339 339 341 342 343 342 342 340 337 335 334 335 335 333 332 333 329 325
329 338 338 337 334 335 331 341 337 334 335 333 344 330 338 334 316 306 296 292 297 306 316 324 330 334 337 339 341 341 342 340 340 338 336 334 334 332 333 333 332 332 329 326
324 328 329 328 331 336 331 338 334 331 329 329 329 324 332 337 322 311 298 293 298 304 313 322 329 334 337 338 339 339 340 339 338 336 336 336 334 334 333 333 332 331 329 328
317 327 327 326 332 332 334 332 330 330 331 326 330 326 329 331 327 324 307 295 297 305 313 323 330 334 334 336 337 338 338 337 336 336 336 335 334 333 332 332 332 331 330 328
319 318 322 326 325 329 330 332 328 326 327 323 336 325 317 324 324 321 308 295 295 303 311 318 325 330 333 334 335 337 337 336 336 335 335 335 334 333 332 333 331 331 330 329
312 313 319 324 321 325 326 327 325 321 322 320 326 322 330 334 331 321 315 301 299 303 310 317 324 328 331 333 335 336 336 334 335 335 335 335 333 333 332 332 331 330 328 327
312 311 320 320 324 326 327 323 329 318 320 320 325 324 325 329 333 330 324 310 300 303 311 317 324 328 330 333 335 336 334 333 334 335 336 335 334 334 332 332 331 329 327 325
310 308 312 316 319 318 317 329 323 322 319 318 320 321 320 328 327 325 318 308 303 305 311 318 323 327 331 334 334 333 333 332 333 335 336 334 334 334 333 332 331 330 328 324
305 302 310 313 306 307 314 312 315 318 315 316 319 319 325 324 321 312 306 302 300 302 309 316 321 328 331 332 333 333 333 334 334 336 336 335 334 334 333 332 332 330 329 325
297 304 299 299 310 309 307 304 303 306 313 310 313 305 320 317 318 308 303 299 298 302 310 317 323 328 330 332 332 333 334 334 337 337 336 335 335 335 334 333 333 332 329 325
293 298 301 307 312 313 308 307 298 302 306 301 308 310 324 321 320 311 305 297 297 304 311 318 323 327 330 332 332 333 335 336 338 337 336 336 335 335 334 334 334 333 330 324
283 288 289 291 300 310 306 305 299 293 297 302 291 297 299 309 311 311 307 300 298 301 309 317 322 327 330 331 333 334 335 338 338 337 337 336 336 336 335 335 335 334 331 326
281 285 288 288 294 299 299 295 296 289 289 292 292 296 299 306 307 301 294 294 296 302 310 317 323 328 331 332 334 335 337 339 339 338 338 337 337 337 337 337 337 335 331 329
286 287 292 292 296 296 296 293 293 290 288 286 286 291 297 306 307 305 298 293 296 302 310 318 325 331 332 334 335 336 338 340 340 339 339 339 339 339 339 339 339 337 332 333
283 287 292 290 300 302 297 296 293 294 293 294 295 291 303 308 310 309 303 293 295 304 313 322 329 332 334 335 336 338 340 340 341 341 341 341 341 341 341 342 341 337 335 335
281 284 289 292 299 292 299 310 306 299 298 293 294 297 304 312 317 314 306 299 305 313 321 328 332 334 336 337 339 342 342 342 343 343 343 343 342 342 343 343 343 335 338 335
274 279 285 287 288 295 298 299 301 302 301 295 292 295 298 308 317 317 315 313 313 321 328 333 336 337 339 339 342 343 343 345 345 345 345 344 344 344 345 345 344 326 314 336
276 274 276 285 288 291 297 313 317 318 304 311 297 298 305 310 307 309 302 317 322 329 335 337 339 340 340 341 345 345 345 346 346 346 346 346 346 347 347 347 343 316 319 339
285 282 271 278 286 293 294 304 312 306 310 322 314 310 306 305 310 320 313 320 325 331 338 342 342 341 341 346 346 346 347 347 347 347 347 348 349 349 350 349 341 320 318 340
272 276 281 283 288 293 300 301 293 306 321 318 317 314 311 316 323 327 319 318 324 331 340 342 342 342 344 347 348 347 347 348 349 348 348 350 352 353 353 352 334 329 322 340
272 269 279 277 287 299 293 297 282 306 310 311 308 313 312 309 311 310 313 317 326 332 340 343 342 341 345 349 350 348 348 349 350 349 350 352 354 356 356 353 331 336 328 333
277 273 280 287 283 283 289 288 289 293 301 302 305 304 298 295 302 307 309 313 320 331 339 341 342 342 344 349 351 351 351 351 350 351 352 354 356 357 357 353 340 339 334 328
276 277 280 285 286 299 291 285 284 282 293 294 298 295 282 288 300 302 303 307 318 332 339 342 342 343 346 349 351 352 352 352 352 352 353 356 358 358 356 351 340 335 333 326
272 277 279 284 291 289 295 287 274 275 281 283 284 286 278 282 295 292 295 303 316 327 337 340 345 347 349 351 352 353 353 353 353 353 355 357 358 359 353 341 347 349 332 330